Location: Katzenstein
(51.7484°N, 10.2155°E)
Time: 00:16:12
(UTC+00:00)

Cosmos 2221 - Pass Details

Date: 17 February 2020
Orbit: 593 x 616 km, 82.5° (Epoch: 09 April)

Event Time Altitude Azimuth Distance (km) Brightness Sun altitude
Rises 04:15:52 0° 177° (S) 2,823 5.9 -21.5°
Reaches altitude 10° 04:18:04 10° 173° (S) 1,928 5.1 -21.1°
Maximum altitude 04:22:14 56° 96° (E) 716 3.1 -20.5°
Drops below altitude 10° 04:26:28 10° 18° (NNE) 1,956 5.4 -19.8°
Sets 04:28:43 0° 14° (NNE) 2,868 6.2 -19.5°
